{"data":{"norad_id":28893,"intl_designator":"2005-043D","name":"SINAH 1","alt_names":[],"object_type":"PAYLOAD","status":"ACTIVE","operator":null,"country":"IRAN","launch_date":"2005-10-27","launch_site_code":"PLMSC","launch_vehicle":null,"mission":null,"orbit_class":"UNKNOWN","rcs_meters":0.7061,"size_class":null,"mass_kg":null,"dimensions":null,"purposes":["earth_obs"],"wikipedia_slug":null,"has_3d_model":false,"image_url":null,"decayed_at":null,"tle_current":{"epoch":"2026-09-19T21:46:22.911168Z","epoch_age_seconds":65617,"freshness":"FRESH","line1":"1 28893U 05043D   26262.90720962  .00000177  00000+0  42963-4 0  9997","line2":"2 28893  98.2994  37.8588 0013988 344.7426  15.3353 14.64211236114388","mean_motion":14.64211236,"eccentricity":0.0013988,"inclination_deg":98.2994,"raan_deg":37.8588,"arg_perigee_deg":344.7426,"mean_anomaly_deg":15.3353,"bstar":4.2963e-5,"rev_number":11438,"period_min":98.346465632504,"perigee_km":669.73651616464,"apogee_km":689.48126606963,"semimajor_km":7057.7458911171,"source":"CELESTRAK","updated_at":"2026-09-20T09:00:33.885347Z"}}}